Memphis, TN

1:59 AM CST on January 21, 2018 (GMT -0600)
Memphis International

Weather History for KMEM - December, 2012

Change the Weather History Date:

Friday, December 7, 2012

  Actual Average Record
Temperature  
Mean Temperature 64 °F 45 °F  
Max Temperature 69 °F 54 °F 76 °F (1924)
Min Temperature 59 °F 37 °F 11 °F (1950)
Degree Days  
Heating Degree Days 1 20  
Month to date heating degree days 22 132  
Since 1 July heating degree days 579 631  
Cooling Degree Days 0 0  
Month to date cooling degree days 4 0  
Year to date cooling degree days 2617 2256  
Growing Degree Days 14 (Base 50)    
Moisture  
Dew Point 56 °F    
Average Humidity 78    
Maximum Humidity 93    
Minimum Humidity 63    
Precipitation  
Precipitation 0.02 in 0.20 in 2.53 in (1924)
Month to date precipitation 0.36 1.37  
Year to date precipitation 33.53 49.31  
Snow  
Snow 0.00 in 0.00 in 8.00 in (1917)
Month to date snowfall 0.0 0.0  
Since 1 July snowfall 0.0 T  
Snow Depth 0.00 in    
Sea Level Pressure  
Sea Level Pressure 29.91 in    
Wind  
Wind Speed 6 mph (SSW)    
Max Wind Speed 15 mph    
Max Gust Speed 23 mph    
Visibility 9 miles    
Events Rain    
T = Trace of Precipitation, MM = Missing Value Source: NWS Daily Summary

Daily Weather History Graph

Daily Weather History Graph

Search for Another Location

Airport or City:

Trip Planner

Search our weather history database for the weather conditions in past years. The results will help you decide how hot, cold, wet, or windy it might be!

Date:

Astronomy

Dec. 07, 2012 Rise Set
Actual Time 6:55 AM CST 4:48 PM CST
Civil Twilight 6:27 AM CST 5:16 PM CST
Nautical Twilight 5:55 AM CST 5:47 PM CST
Astronomical Twilight 5:24 AM CST 6:18 PM CST
Moon 12:27 AM CST (12/7) 12:33 PM CST (12/7)
Length of Visible Light 10h 48m
Length of Day
9h 52m
Last Quarter, 38% of the Moon is Illuminated
Dec 7
Last Quarter
Dec 13
New
Dec 19
First Quarter
Dec 28
Full
Jan 4
Last Quarter

Hourly Weather History & Observations

Time (CST) Temp. Dew Point Humidity Pressure Visibility Wind Dir Wind Speed Gust Speed Precip Events Conditions
12:22 AM 60.8 °F 57.2 °F 88% 29.94 in 9.0 mi South 4.6 mph - N/A   Mostly Cloudy
12:52 AM 60.8 °F 57.2 °F 88% 29.93 in 9.0 mi South 4.6 mph - N/A   Mostly Cloudy
12:54 AM 60.1 °F 57.0 °F 90% 29.93 in 9.0 mi South 3.5 mph - N/A   Mostly Cloudy
1:07 AM 60.8 °F 57.2 °F 88% 29.93 in 9.0 mi South 4.6 mph - N/A   Mostly Cloudy
1:54 AM 59.0 °F 57.0 °F 93% 29.93 in 9.0 mi SSW 3.5 mph - 0.00 in   Mostly Cloudy
2:32 AM 59.0 °F 57.2 °F 94% 29.93 in 9.0 mi South 3.5 mph - 0.00 in   Mostly Cloudy
2:45 AM 59.0 °F 57.2 °F 94% 29.93 in 9.0 mi South 3.5 mph - 0.00 in   Mostly Cloudy
2:54 AM 59.0 °F 57.0 °F 93% 29.91 in 9.0 mi South 3.5 mph - 0.00 in   Mostly Cloudy
3:15 AM 59.0 °F 57.2 °F 94% 29.92 in 9.0 mi South 4.6 mph - N/A   Mostly Cloudy
3:54 AM 60.1 °F 57.0 °F 90% 29.91 in 9.0 mi South 6.9 mph - N/A   Mostly Cloudy
4:27 AM 60.8 °F 57.2 °F 88% 29.91 in 10.0 mi South 8.1 mph - N/A   Mostly Cloudy
4:36 AM 60.8 °F 57.2 °F 88% 29.91 in 10.0 mi South 8.1 mph - N/A   Overcast
4:45 AM 60.8 °F 57.2 °F 88% 29.91 in 10.0 mi South 8.1 mph - N/A   Mostly Cloudy
4:54 AM 61.0 °F 57.0 °F 87% 29.91 in 10.0 mi South 8.1 mph - N/A   Overcast
5:28 AM 59.0 °F 57.2 °F 94% 29.92 in 9.0 mi South 5.8 mph - N/A   Mostly Cloudy
5:54 AM 60.1 °F 57.0 °F 90% 29.93 in 8.0 mi South 5.8 mph - 0.02 in Rain Light Rain
6:32 AM 59.0 °F 57.2 °F 94% 29.94 in 9.0 mi South 6.9 mph - 0.00 in   Overcast
6:54 AM 60.1 °F 57.0 °F 90% 29.94 in 7.0 mi South 5.8 mph - 0.00 in   Overcast
7:39 AM 60.8 °F 57.2 °F 88% 29.94 in 7.0 mi South 5.8 mph - N/A   Overcast
7:49 AM 60.8 °F 57.2 °F 88% 29.95 in 7.0 mi SSW 6.9 mph - N/A   Overcast
7:54 AM 60.1 °F 57.0 °F 90% 29.94 in 7.0 mi South 5.8 mph - N/A   Overcast
8:04 AM 60.8 °F 57.2 °F 88% 29.95 in 7.0 mi South 5.8 mph - N/A   Overcast
8:54 AM 62.1 °F 57.9 °F 86% 29.95 in 8.0 mi South 9.2 mph - 0.00 in   Overcast
9:50 AM 62.6 °F 57.2 °F 82% 29.96 in 8.0 mi South 9.2 mph - N/A   Overcast
9:54 AM 62.1 °F 57.9 °F 86% 29.95 in 8.0 mi South 9.2 mph - N/A   Overcast
10:54 AM 63.0 °F 57.9 °F 84% 29.94 in 9.0 mi SSW 8.1 mph - N/A   Overcast
11:54 AM 62.1 °F 57.9 °F 86% 29.91 in 7.0 mi SW 8.1 mph - 0.00 in Rain Light Rain
12:13 PM 62.6 °F 57.2 °F 82% 29.91 in 8.0 mi SSW 10.4 mph 16.1 mph 0.00 in   Overcast
12:19 PM 64.4 °F 57.2 °F 77% 29.91 in 8.0 mi SSW 10.4 mph 20.7 mph 0.00 in   Overcast
12:51 PM 64.4 °F 57.2 °F 77% 29.89 in 10.0 mi SW 10.4 mph 23.0 mph 0.00 in   Overcast
12:54 PM 64.9 °F 57.0 °F 75% 29.88 in 10.0 mi SW 6.9 mph 17.3 mph 0.00 in   Overcast
1:14 PM 66.2 °F 57.2 °F 73% 29.88 in 10.0 mi SW 8.1 mph 17.3 mph N/A   Mostly Cloudy
1:32 PM 66.2 °F 55.4 °F 68% 29.87 in 10.0 mi SSW 10.4 mph 18.4 mph N/A   Mostly Cloudy
1:41 PM 66.2 °F 55.4 °F 68% 29.86 in 10.0 mi SSW 8.1 mph 18.4 mph N/A   Mostly Cloudy
1:54 PM 66.0 °F 55.9 °F 70% 29.85 in 10.0 mi WSW 10.4 mph - N/A   Overcast
2:40 PM 69.8 °F 55.4 °F 60% 29.85 in 10.0 mi SSW 11.5 mph 17.3 mph N/A   Mostly Cloudy
2:54 PM 66.9 °F 55.0 °F 66% 29.84 in 10.0 mi SSW 10.4 mph - N/A   Mostly Cloudy
3:15 PM 68.0 °F 55.4 °F 64% 29.85 in 10.0 mi South 11.5 mph - N/A   Mostly Cloudy
3:50 PM 69.8 °F 55.4 °F 60% 29.85 in 10.0 mi SSW 9.2 mph - N/A   Mostly Cloudy
3:54 PM 68.0 °F 55.0 °F 63% 29.84 in 10.0 mi South 12.7 mph 17.3 mph N/A   Mostly Cloudy
4:54 PM 66.9 °F 55.0 °F 66% 29.86 in 10.0 mi SW 4.6 mph - N/A   Mostly Cloudy
5:54 PM 64.9 °F 55.0 °F 70% 29.87 in 10.0 mi SSW 5.8 mph - N/A   Mostly Cloudy
6:54 PM 64.0 °F 55.0 °F 73% 29.89 in 10.0 mi WSW 5.8 mph - N/A   Mostly Cloudy
7:54 PM 61.0 °F 53.1 °F 75% 29.90 in 10.0 mi West 3.5 mph - N/A   Mostly Cloudy
8:54 PM 61.0 °F 53.1 °F 75% 29.91 in 10.0 mi Calm Calm - N/A   Mostly Cloudy
9:54 PM 61.0 °F 54.0 °F 78% 29.90 in 9.0 mi SSE 3.5 mph - N/A   Overcast
10:54 PM 61.0 °F 54.0 °F 78% 29.90 in 10.0 mi South 5.8 mph - N/A   Overcast
11:43 PM 60.8 °F 55.4 °F 82% 29.89 in 10.0 mi South 5.8 mph - N/A   Overcast
11:54 PM 61.0 °F 55.0 °F 81% 29.88 in 10.0 mi SSE 6.9 mph - N/A   Overcast